| time (UTC) | temp C | wind direction | speed KPH | gust KPH | rain 1hr cm | rain 24hr cm | rain mn cm | humidity % | barometer mb |
| 20260906123038 | 18 | 61 | 0.0 | 4.8 | 0.00 | 0.15 | 0.15 | 87 | 1014.0 |
| 20260906121535 | 18 | 77 | 1.6 | 11.3 | 0.00 | 0.15 | 0.15 | 88 | 1013.9 |
| 20260906120036 | 17 | 49 | 1.6 | 8.0 | 0.00 | 0.15 | 0.15 | 89 | 1013.6 |
| 20260906114537 | 17 | 59 | 0.0 | 1.6 | 0.00 | 0.15 | 0.15 | 90 | 1013.6 |
| 20260906113032 | 17 | 59 | 0.0 | 4.8 | 0.03 | 0.15 | 0.15 | 90 | 1013.4 |
| 20260906111528 | 17 | 59 | 0.0 | 1.6 | 0.03 | 0.15 | 0.15 | 90 | 1013.2 |
| 20260906110038 | 17 | 59 | 0.0 | 1.6 | 0.03 | 0.15 | 0.15 | 90 | 1012.9 |
| 20260906104525 | 17 | 59 | 0.0 | 1.6 | 0.03 | 0.15 | 0.15 | 89 | 1012.9 |
| 20260906103023 | 17 | 59 | 0.0 | 0.0 | 0.00 | 0.13 | 0.13 | 89 | 1012.5 |
| 20260906101522 | 17 | 59 | 0.0 | 0.0 | 0.00 | 0.13 | 0.13 | 88 | 1012.4 |
| 20260906100022 | 17 | 59 | 0.0 | 1.6 | 0.03 | 0.13 | 0.13 | 89 | 1012.3 |
| 20260906094530 | 17 | 59 | 0.0 | 0.0 | 0.03 | 0.13 | 0.13 | 88 | 1012.4 |
| 20260906093020 | 17 | 59 | 0.0 | 3.2 | 0.03 | 0.13 | 0.13 | 88 | 1012.3 |
| 20260906091519 | 17 | 60 | 0.0 | 4.8 | 0.03 | 0.13 | 0.13 | 89 | 1011.8 |
| 20260906090018 | 17 | 63 | 0.0 | 1.6 | 0.00 | 0.10 | 0.10 | 90 | 1011.8 |
| 20260906084517 | 17 | 63 | 0.0 | 0.0 | 0.03 | 0.10 | 0.10 | 91 | 1011.8 |
| 20260906081535 | 17 | 63 | 0.0 | 0.0 | 0.03 | 0.10 | 0.10 | 91 | 1011.8 |
| 20260906080017 | 17 | 63 | 0.0 | 0.0 | 0.03 | 0.10 | 0.10 | 91 | 1011.8 |
| 20260906074514 | 17 | 63 | 0.0 | 0.0 | 0.00 | 0.08 | 0.08 | 91 | 1011.7 |
| 20260906073013 | 17 | 63 | 0.0 | 0.0 | 0.00 | 0.08 | 0.08 | 91 | 1011.7 |
| 20260906071512 | 17 | 63 | 0.0 | 0.0 | 0.03 | 0.08 | 0.08 | 91 | 1011.6 |
| 20260906070012 | 17 | 63 | 0.0 | 1.6 | 0.03 | 0.08 | 0.08 | 91 | 1011.6 |
| 20260906064511 | 17 | 63 | 0.0 | 0.0 | 0.03 | 0.08 | 0.08 | 91 | 1011.7 |
| 20260906063010 | 17 | 63 | 0.0 | 0.0 | 0.00 | 0.05 | 0.05 | 90 | 1011.9 |
| 20260906061509 | 17 | 63 | 0.0 | 0.0 | 0.03 | 0.05 | 0.05 | 90 | 1011.9 |
| 20260906060005 | 17 | 63 | 0.0 | 1.6 | 0.03 | 0.05 | 0.05 | 89 | 1011.8 |
| 20260906054504 | 17 | 63 | 0.0 | 0.0 | 0.03 | 0.05 | 0.05 | 88 | 1011.7 |
| 20260906053002 | 18 | 63 | 0.0 | 0.0 | 0.03 | 0.05 | 0.05 | 87 | 1011.9 |
| 20260906051559 | 18 | 63 | 0.0 | 0.0 | 0.03 | 0.03 | 0.03 | 86 | 1012.1 |
| 20260906050115 | 18 | 63 | 0.0 | 8.0 | 0.03 | 0.03 | 0.03 | 84 | 1012.3 |
| 20260906044556 | 18 | 59 | 0.0 | 4.8 | 0.03 | 0.03 | 0.03 | 84 | 1012.3 |
| 20260906043056 | 18 | 59 | 0.0 | 6.4 | 0.03 | 0.03 | 0.03 | 84 | 1012.3 |
| 20260906041552 | 18 | 68 | 0.0 | 4.8 | 0.00 | 0.00 | 0.00 | 84 | 1012.1 |
| 20260906040110 | 18 | 67 | 0.0 | 6.4 | 0.00 | 0.00 | 0.00 | 84 | 1012.0 |
| 20260906034601 | 18 | 72 | 0.0 | 4.8 | 0.00 | 0.00 | 0.00 | 85 | 1012.0 |
| 20260906033049 | 18 | 76 | 0.0 | 8.0 | 0.00 | 0.00 | 0.00 | 85 | 1012.0 |
| 20260906031551 | 18 | 52 | 0.0 | 11.3 | 0.00 | 0.00 | 0.00 | 86 | 1011.8 |
| 20260906030047 | 18 | 76 | 1.6 | 9.7 | 0.00 | 0.00 | 0.00 | 87 | 1011.8 |
| 20260906024545 | 18 | 53 | 0.0 | 6.4 | 0.00 | 0.00 | 0.00 | 87 | 1011.7 |
| 20260906023050 | 19 | 53 | 0.0 | 11.3 | 0.00 | 0.00 | 0.00 | 87 | 1011.5 |
| 20260906021554 | 19 | 41 | 1.6 | 11.3 | 0.00 | 0.00 | 0.00 | 88 | 1011.7 |
| 20260906020053 | 19 | 84 | 0.0 | 9.7 | 0.00 | 0.00 | 0.00 | 89 | 1011.5 |
| 20260906014552 | 19 | 71 | 1.6 | 8.0 | 0.00 | 0.00 | 0.00 | 89 | 1011.6 |
| 20260906013041 | 19 | 71 | 0.0 | 8.0 | 0.00 | 0.00 | 0.00 | 89 | 1011.2 |
| 20260906011540 | 19 | 74 | 0.0 | 3.2 | 0.00 | 0.00 | 0.00 | 88 | 1011.3 |
| 20260906010039 | 20 | 75 | 0.0 | 6.4 | 0.00 | 0.00 | 0.00 | 88 | 1011.3 |
| 20260906004537 | 20 | 71 | 1.6 | 12.9 | 0.00 | 0.00 | 0.00 | 88 | 1010.9 |
| 20260906003040 | 20 | 78 | 1.6 | 9.7 | 0.00 | 0.00 | 0.00 | 88 | 1010.8 |
| 20260906001534 | 20 | 76 | 1.6 | 8.0 | 0.00 | 0.00 | 0.00 | 88 | 1010.5 |
| 20260906000033 | 20 | 73 | 1.6 | 8.0 | 0.00 | 0.00 | 0.00 | 87 | 1010.5 |
| 20260905234532 | 20 | 65 | 1.6 | 6.4 | 0.00 | 0.00 | 0.00 | 88 | 1010.4 |
| 20260905233033 | 20 | 65 | 1.6 | 8.0 | 0.00 | 0.00 | 0.00 | 87 | 1010.2 |
| 20260905231532 | 21 | 74 | 0.0 | 4.8 | 0.00 | 0.00 | 0.00 | 86 | 1010.1 |
| 20260905230028 | 21 | 71 | 0.0 | 8.0 | 0.00 | 0.00 | 0.00 | 85 | 1010.0 |
| 20260905224528 | 22 | 78 | 0.0 | 9.7 | 0.00 | 0.00 | 0.00 | 83 | 1009.9 |
| 20260905223036 | 22 | 96 | 3.2 | 19.3 | 0.00 | 0.00 | 0.00 | 79 | 1009.9 |
| 20260905221538 | 23 | 59 | 1.6 | 9.7 | 0.00 | 0.00 | 0.00 | 78 | 1009.7 |
| 20260905220027 | 23 | 65 | 0.0 | 3.2 | 0.00 | 0.00 | 0.00 | 76 | 1009.6 |
| 20260905214524 | 24 | 61 | 0.0 | 1.6 | 0.00 | 0.00 | 0.00 | 73 | 1009.6 |
| 20260905213023 | 25 | 57 | 0.0 | 8.0 | 0.00 | 0.00 | 0.00 | 68 | 1009.2 |
| 20260905211537 | 25 | 94 | 0.0 | 3.2 | 0.00 | 0.00 | 0.00 | 68 | 1009.1 |
| 20260905210022 | 25 | 43 | 0.0 | 4.8 | 0.00 | 0.00 | 0.00 | 67 | 1008.9 |
| 20260905204521 | 25 | 43 | 0.0 | 1.6 | 0.00 | 0.03 | 0.00 | 68 | 1008.7 |
| 20260905203025 | 25 | 44 | 1.6 | 9.7 | 0.00 | 0.03 | 0.00 | 65 | 1008.7 |
| 20260905201521 | 25 | 38 | 0.0 | 4.8 | 0.00 | 0.03 | 0.00 | 66 | 1008.6 |
| 20260905200021 | 25 | 41 | 0.0 | 9.7 | 0.00 | 0.03 | 0.00 | 65 | 1008.6 |
| 20260905194520 | 25 | 76 | 1.6 | 14.5 | 0.00 | 0.05 | 0.00 | 65 | 1008.8 |
| 20260905193019 | 25 | 71 | 1.6 | 14.5 | 0.00 | 0.05 | 0.00 | 67 | 1008.7 |
| 20260905191519 | 25 | 212 | 0.0 | 9.7 | 0.00 | 0.05 | 0.00 | 67 | 1008.7 |
| 20260905190019 | 25 | 189 | 0.0 | 4.8 | 0.00 | 0.05 | 0.00 | 66 | 1008.7 |
| 20260905184518 | 25 | 88 | 0.0 | 4.8 | 0.00 | 0.08 | 0.00 | 67 | 1008.9 |
| 20260905183018 | 25 | 74 | 1.6 | 9.7 | 0.00 | 0.08 | 0.00 | 67 | 1008.9 |
| 20260905181516 | 25 | 48 | 0.0 | 9.7 | 0.00 | 0.08 | 0.00 | 67 | 1009.0 |
| 20260905180014 | 25 | 77 | 3.2 | 12.9 | 0.00 | 0.08 | 0.00 | 67 | 1009.2 |
| 20260905174512 | 25 | 82 | 3.2 | 12.9 | 0.00 | 0.13 | 0.00 | 69 | 1009.1 |
| 20260905173011 | 25 | 33 | 0.0 | 12.9 | 0.00 | 0.13 | 0.00 | 69 | 1009.2 |
| 20260905171529 | 25 | 57 | 1.6 | 16.1 | 0.00 | 0.13 | 0.00 | 68 | 1009.3 |
| 20260905170010 | 25 | 98 | 0.0 | 8.0 | 0.00 | 0.13 | 0.00 | 70 | 1009.2 |
| 20260905164510 | 24 | 33 | 3.2 | 14.5 | 0.00 | 0.15 | 0.00 | 69 | 1009.2 |
| 20260905163008 | 24 | 64 | 1.6 | 6.4 | 0.00 | 0.15 | 0.00 | 70 | 1009.1 |
| 20260905161506 | 24 | 317 | 0.0 | 14.5 | 0.00 | 0.15 | 0.00 | 69 | 1009.0 |
| 20260905160003 | 24 | 56 | 0.0 | 14.5 | 0.00 | 0.15 | 0.00 | 70 | 1009.1 |
| 20260905154559 | 24 | 69 | 1.6 | 9.7 | 0.00 | 0.15 | 0.00 | 72 | 1009.1 |
| 20260905153054 | 24 | 18 | 3.2 | 14.5 | 0.00 | 0.15 | 0.00 | 70 | 1009.3 |
| 20260905151550 | 23 | 41 | 3.2 | 17.7 | 0.00 | 0.15 | 0.00 | 70 | 1009.2 |
| 20260905150047 | 23 | 81 | 3.2 | 11.3 | 0.00 | 0.15 | 0.00 | 71 | 1009.2 |
| 20260905144550 | 23 | 63 | 3.2 | 16.1 | 0.00 | 0.15 | 0.00 | 73 | 1009.1 |
| 20260905143041 | 23 | 350 | 8.0 | 19.3 | 0.00 | 0.15 | 0.00 | 71 | 1008.9 |
| 20260905141538 | 22 | 17 | 3.2 | 16.1 | 0.00 | 0.15 | 0.00 | 73 | 1008.9 |
| 20260905140039 | 22 | 316 | 1.6 | 16.1 | 0.00 | 0.15 | 0.00 | 75 | 1008.8 |
| 20260905134543 | 22 | 38 | 1.6 | 9.7 | 0.00 | 0.15 | 0.00 | 75 | 1009.0 |
| 20260905133036 | 22 | 55 | 6.4 | 17.7 | 0.00 | 0.15 | 0.00 | 73 | 1009.1 |
| 20260905131533 | 22 | 51 | 1.6 | 14.5 | 0.00 | 0.15 | 0.00 | 78 | 1009.0 |
| 20260905130029 | 22 | 42 | 3.2 | 9.7 | 0.00 | 0.15 | 0.00 | 79 | 1009.4 |
| 20260905124539 | 21 | 342 | 0.0 | 8.0 | 0.00 | 0.15 | 0.00 | 81 | 1009.3 |